This is the latest recevied weather packets stored in our database for station/object W6MAF. If no packets are shown the sender has not sent any weather packets the latest 10 day(s).
| Time | Temp. | Humidity | Pressure | Rain* | Wind** | Luminosity | Snow |
|---|---|---|---|---|---|---|---|
| 1777623692 | 11.67° C | 81% | - | 0 mm | 3.58 m/s, 208° | - | - |
| 1777623394 | 11.11° C | 82% | - | 0 mm | 3.58 m/s, 201° | - | - |
| 1777623097 | 11.11° C | 83% | - | 0 mm | 3.58 m/s, 200° | - | - |
| 1777622796 | 11.11° C | 83% | - | 0 mm | 3.58 m/s, 195° | - | - |
| 1777622498 | 11.67° C | 83% | - | 0 mm | 3.13 m/s, 218° | - | - |
| 1777622201 | 11.11° C | 84% | - | 0 mm | 3.13 m/s, 212° | - | - |
| 1777621903 | 11.11° C | 84% | - | 0 mm | 3.58 m/s, 205° | - | - |
| 1777621370 | 11.11° C | 85% | - | 0 mm | 3.58 m/s, 215° | - | - |
| 1777621307 | 11.11° C | 85% | - | 0 mm | 3.58 m/s, 215° | - | - |
| 1777621006 | 11.11° C | 85% | - | 0 mm | 3.13 m/s, 211° | - | - |
| 1777620792 | 11.11° C | 85% | - | 0 mm | 3.13 m/s, 198° | - | - |
| 1777620709 | 11.11° C | 85% | - | 0 mm | 3.13 m/s, 198° | - | - |
| 1777620411 | 11.11° C | 85% | - | 0 mm | 2.68 m/s, 204° | - | - |
| 1777619816 | 11.11° C | 84% | - | 0 mm | 2.68 m/s, 219° | - | - |
| 1777619518 | 11.67° C | 84% | - | 0 mm | 0.89 m/s, 215° | - | - |
| 1777619217 | 11.67° C | 84% | - | 0 mm | 1.79 m/s, 233° | - | - |
| 1777618919 | 11.67° C | 84% | - | 0 mm | 3.13 m/s, 225° | - | - |
| 1777618622 | 11.67° C | 83% | - | 0 mm | 4.47 m/s, 217° | - | - |
| 1777618324 | 11.67° C | 84% | - | 0 mm | 3.13 m/s, 246° | - | - |
| 1777618059 | 11.67° C | 84% | - | 0 mm | 3.58 m/s, 226° | - | - |
| 1777618026 | 11.67° C | 84% | - | 0 mm | 3.58 m/s, 226° | - | - |
| 1777617729 | 11.67° C | 84% | - | 0 mm | 3.13 m/s, 242° | - | - |
| 1777617428 | 11.67° C | 85% | - | 0 mm | 2.68 m/s, 203° | - | - |
| 1777617130 | 11.67° C | 86% | - | 0 mm | 2.68 m/s, 207° | - | - |
| 1777616832 | 11.67° C | 87% | - | 0 mm | 2.68 m/s, 198° | - | - |
* Rain latest hour (hover to see other rain measurements)
** Current wind speed in m/s (hover to see current wind gust speed)